Location: La Brionne
(46.1728°N, 1.7849°E)
Time: 07:51:06
(UTC+00:00)

Cosmos 1025 Rocket - Pass Details

Date: 16 June 2021
Orbit: 593 x 619 km, 82.5° (Epoch: 02 August)

Event Time Altitude Azimuth Distance (km) Brightness Sun altitude
Exits shadow 21:09:59 15° 158° (SSE) 1,681 4.7 -11.2°
Maximum altitude 21:13:18 41° 93° (E) 895 3.6 -11.5°
Drops below altitude 10° 21:17:26 10° 23° (NNE) 1,983 6.1 -12.0°
Sets 21:19:44 0° 16° (NNE) 2,889 7.1 -12.2°
